005  
ASUS45 KTFX 291710  
RWRMT  
MONTANA REGIONAL WEATHER ROUNDUP  
NATIONAL WEATHER SERVICE GREAT FALLS MT  
1100 AM MDT MON MAY 29 2017  
 
NOTE: "FAIR" INDICATES FEW OR NO CLOUDS BELOW 12000 FEET WITH NO  
SIGNIFICANT WEATHER AND/OR S TO VISIBILITY
.  
 
MTZ001>007-043-291800-  
WEST OF THE DIVIDE  
 
CITY SKY/WX TMP DP RH WIND PRES REMARKS
 
KALISPELL SUNNY 70 48 45 NE7 30.15F  
MISSOULA SUNNY 68 45 43 CALM 30.17F  
BUTTE SUNNY 66 31 27 SE10 30.26F  
MULLAN PASS SUNNY 59 40 49 SE6 30.25F  
ANACONDA N/A 66 36 32 SE5 30.23F  
DEER LODGE N/A 66 45 45 E3 30.25F  
EUREKA N/A 66 46 48 CALM 30.15F  
HAMILTON N/A 68 43 40 CALM 30.17F  
PLAINS N/A 68 50 52 CALM 30.13F  
RONAN N/A 70 49 47 W2 30.19F  

 
 
MTZ008-052>055-291800-  
SOUTHWEST MONTANA  
 
CITY SKY/WX TMP DP RH WIND PRES REMARKS
 
DILLON SUNNY 61 41 47 NW3 30.26F  
ENNIS SUNNY 61 39 44 VRB3 30.32F  
THREE FORKS N/A 64 45 50 CALM 30.22F  
TWIN BRIDGES N/A 61 40 45 S3 30.22F  

 
 
MTZ009-010-012-014-046-048-049-054-291800-  
EAST SLOPES AND CENTRAL MONTANA  
 
CITY SKY/WX TMP DP RH WIND PRES REMARKS
 
CUT BANK SUNNY 63 42 46 SE9 30.20F  
GREAT FALLS SUNNY 65 47 52 E3 30.20F  
MALMSTROM AFB SUNNY 64 49 58 CALM 30.21F  
HELENA SUNNY 66 47 50 E6 30.21F  
CHOTEAU N/A 64 48 55 SE7 30.22F  
CONRAD N/A 66 53 63 E9 30.21F  

 
 
MTZ011-013-016-021-045-047-050-051-291800-  
NORTH CENTRAL MONTANA  
 
CITY SKY/WX TMP DP RH WIND PRES REMARKS
 
HAVRE SUNNY 65 31 28 E3 30.21F  
LEWISTOWN SUNNY 64 40 41 VRB5 30.24F  
N BAR RANCH N/A 63 37 39 NW12 30.26F  
CHINOOK N/A 63 32 31 NE5 30.22F  
FORT BENTON N/A 64 43 45 MISG 30.22F  

 
 
MTZ017>020-022>027-061-062-291800-  
NORTHEAST MONTANA  
 
CITY SKY/WX TMP DP RH WIND PRES REMARKS
 
GLASGOW SUNNY 62 36 37 NW15G25 30.20F  
JORDAN N/A 64 30 27 N13 30.20F  
SIDNEY PTSUNNY 61 37 41 NW18G26 30.14F  
WOLF POINT MOSUNNY 64 33 31 N20G25 30.18F  
MALTA SUNNY 63 30 29 N10G17 30.21F  
PLENTYWOOD N/A 55 34 44 NW20G30 30.12F  
POPLAR N/A 59 34 38 N17G25 30.17F  
SCOBEY N/A 58 31 36 NW24 30.14F  

 
 
MTZ028>42-056>058-291800-  
SOUTHCENTRAL AND SOUTHEAST MONTANA  
 
CITY SKY/WX TMP DP RH WIND PRES REMARKS
 
BAKER PTSUNNY 56 35 45 NW16 30.17F  
BILLINGS MOSUNNY 62 35 36 W6 30.24F  
LIVINGSTON SUNNY 64 48 56 N5 30.25F  
MILES CITY SUNNY 64 29 26 N17G23 30.20F  
BIG TIMBER SUNNY 63 45 51 W8 30.27F  
EKALAKA N/A 57 33 40 NW18 30.14F  
FORSYTH N/A 61 34 36 NW9G18 30.21F  
LAUREL N/A 63 41 44 SW2 30.21F  
ROUNDUP N/A 63 30 28 W3 30.13F  

 
 
REGIONAL REPORTS...DAKOTAS  
 
CITY SKY/WX TMP DP RH WIND PRES REMARKS
 
WILLISTON PTSUNNY 62 37 39 NW25G31 30.12F  
MINOT CLOUDY 59 39 47 NW23G32 30.01S  
DICKINSON MOSUNNY 60 34 37 NW21G30 30.09S  
BEACH PTSUNNY 57 34 41 NW20G28 30.18S  
CROSBY CLOUDY 59 36 41 NW22G32 30.08F  
TIOGA CLOUDY 55 36 47 NW23G32 30.09F  
WATFORD CITY PTSUNNY 57 37 47 NW18G30 30.10F  
BISMARCK CLOUDY 60 41 49 NW23G30 30.04R  
GRAND FORKS CLOUDY 59 52 77 NW18 29.85F  
FARGO CLOUDY 56 49 77 N17 29.88S  
BUFFALO SD N/A 60 36 40 NW25G38 30.08F  
RAPID CITY SUNNY 63 35 35 N21G30 30.15F  

 
 
REGIONAL REPORTS...WYOMING/IDAHO/WASHINGTON  
 
CITY SKY/WX TMP DP RH WIND PRES REMARKS
 
GILLETTE SUNNY 61 36 39 N14G21 30.22S  
SHERIDAN SUNNY 64 41 42 NW10 30.23F  
BUFFALO WY SUNNY 61 38 42 N20 30.25S  
CODY SUNNY 62 41 46 NE7 30.28F  
YELLOWSTONE LA N/A 45 36 70 CALM 30.38F  
IDAHO FALLS MOSUNNY 69 44 40 NE9 30.22F  
SALMON SUNNY 64 43 45 CALM 30.18F  
BOISE SUNNY 75 43 31 VRB5 30.11F  
SPOKANE MOSUNNY 73 47 39 NE9 30.07F  

 
 
REGIONAL REPORTS...ALBERTA  
 
CITY SKY/WX TMP DP RH WIND PRES REMARKS
 
EDMONTON SUNNY 64 36 34 E5 30.20F  
CALGARY MOSUNNY 63 34 34 S14 30.18F  
LETHBRIDGE MOSUNNY 68 43 40 VRB9 30.17F  
MEDICINE HAT MOSUNNY 63 32 31 N5 30.20F  
WATERTON GATE N/A 66 50 55 NE8 N/A  
CARDSTON N/A 66 46 48 W2 N/A  
MILK RIVER N/A 68 36 30 S10 N/A  

 
 
REGIONAL REPORTS...SASKATCHEWAN  
 
CITY SKY/WX TMP DP RH WIND PRES REMARKS
 
SWIFT CURRENT MOSUNNY 59 34 38 NW14G24 30.19F  
REGINA PTSUNNY 59 34 38 N24G33 30.11F  
SASKATOON MOSUNNY 63 30 29 NW23G29 30.17F  
CYPRESS HILLS N/A 55 27 33 NW3 N/A  
VAL MARIE N/A 61 34 36 NW10G18 N/A  
ROCKGLEN N/A 55 34 44 N16G26 N/A  
ASSINIBOIA N/A 64 28 25 NE6 N/A  

 
 
 
CLICK HERE TO GO TO PREVIOUS BULLETINS.

The Nexlab MT Page Main Text Page